Satellite: NOAA-16
Catalog number: 26536
Epoch time:      11201.72075982
Element set:    0372
Inclination:      099.1379 deg
RA of node:       232.9415 deg
Eccentricity:    0.0009700
Arg of perigee:   300.5636 deg
Mean anomaly:     059.4581 deg
Mean motion:   14.12631807 rev/day
Decay rate:       1.22e-06 rev/day^2
Epoch rev:           55809
Checksum:              296

Satellite: NOAA-17
Catalog number: 27453
Epoch time:      11201.75606046
Element set:    0360
Inclination:      098.3769 deg
RA of node:       239.9232 deg
Eccentricity:    0.0012561
Arg of perigee:   054.3413 deg
Mean anomaly:     305.8918 deg
Mean motion:   14.24293127 rev/day
Decay rate:        2.9e-07 rev/day^2
Epoch rev:           47143
Checksum:              294

Satellite: NOAA-18
Catalog number: 28654
Epoch time:      11201.77109007
Element set:    0840
Inclination:      098.9982 deg
RA of node:       153.0043 deg
Eccentricity:    0.0014567
Arg of perigee:   014.1366 deg
Mean anomaly:     346.0205 deg
Mean motion:   14.11495646 rev/day
Decay rate:       4.26e-06 rev/day^2
Epoch rev:           31766
Checksum:              293

Satellite: NOAA-19
Catalog number: 33591
Epoch time:      11201.77571193
Element set:    0031
Inclination:      098.8281 deg
RA of node:       141.3680 deg
Eccentricity:    0.0013131
Arg of perigee:   240.4688 deg
Mean anomaly:     119.5200 deg
Mean motion:   14.11184022 rev/day
Decay rate:       -6.3e-07 rev/day^2
Epoch rev:           12612
Checksum:              255

/EX
SB KEPS @ AMSAT  $ORB11202.M
Orbital Elements  11202.MISC

HR AMSAT ORBITAL ELEMENTS FOR MANNED AND MISCELLANEOUS SATELLITES
FROM WA5QGD FORT WORTH,TX July 21, 2011
Send Subscribe/unsubscribe to KEPS at http://www.amsat.org/mailman/listinfo/kep
BID: ORB11202.M
TO ALL RADIO AMATEURS BT

Satellite: HUBBLE
Catalog number: 20580
Epoch time:      11201.28828586
Element set:     801
Inclination:      028.4691 deg
RA of node:       160.2129 deg
Eccentricity:    0.0003585
Arg of perigee:   116.6907 deg
Mean anomaly:     243.4152 deg
Mean motion:   15.01425223 rev/day
Decay rate:       6.00e-06 rev/day^2
Epoch rev:           96463
Checksum:              267

Satellite: ISS
Catalog number: 25544
Epoch time:      11202.87696503
Element set:     757
Inclination:      051.6422 deg
RA of node:       346.0977 deg
Eccentricity:    0.0011648
Arg of perigee:   349.5486 deg
Mean anomaly:     147.5303 deg
Mean motion:   15.60142338 rev/day
Decay rate:     4.8952e-04 rev/day^2
Epoch rev:           72632
Checksum:              315

Satellite: CO-58
Catalog number: 28895
Epoch time:      11201.64414643
Element set:     927
Inclination:      097.9609 deg
RA of node:       076.7323 deg
Eccentricity:    0.0018920
Arg of perigee:   114.4801 deg
Mean anomaly:     245.8390 deg
Mean motion:   14.60134326 rev/day
Decay rate:       2.88e-06 rev/day^2
Epoch rev:           30512
Checksum:              307

Satellite: FALCON
Catalog number: 30776
Epoch time:      11201.94907914
Element set:    0148
Inclination:      035.4325 deg
RA of node:       141.6701 deg
Eccentricity:    0.0001797
Arg of perigee:   358.9499 deg
Mean anomaly:     001.1224 deg
Mean motion:   15.04755276 rev/day
Decay rate:      1.228e-05 rev/day^2
Epoch rev:           24013
Checksum:              280

Satellite: MAST
Catalog number: 31126
Epoch time:      11202.58742182
Element set:     214
Inclination:      097.8929 deg
RA of node:       227.8674 deg
Eccentricity:    0.0095518
Arg of perigee:   064.0390 deg
Mean anomaly:     297.0602 deg
Mean motion:   14.53773879 rev/day
Decay rate:       3.30e-06 rev/day^2
Epoch rev:           22608
Checksum:              306

Satellite: CAPE1
Catalog number: 31130
Epoch time:      11201.64122139
Element set:    0229
Inclination:      097.8976 deg
RA of node:       223.6916 deg
Eccentricity:    0.0103541
Arg of perigee:   077.5392 deg
Mean anomaly:     283.7399 deg
Mean motion:   14.52424224 rev/day
Decay rate:       4.46e-06 rev/day^2
Epoch rev:           22549
Checksum:              293

Satellite: COMPASS
Catalog number: 32787
Epoch time:      11202.16130385
Element set:      43
Inclination:      097.8452 deg
RA of node:       265.3434 deg
Eccentricity:    0.0016829
Arg of perigee:   066.6393 deg
Mean anomaly:     293.6575 deg
Mean motion:   14.82502257 rev/day
Decay rate:      1.095e-05 rev/day^2
Epoch rev:           17459
Checksum:              310

Satellite: AAUSAT2
Catalog number: 32788
Epoch time:      11201.71576226
Element set:    0035
Inclination:      097.8463 deg
RA of node:       265.1413 deg
Eccentricity:    0.0016675
Arg of perigee:   068.4797 deg
Mean anomaly:     291.8162 deg
Mean motion:   14.82687479 rev/day
Decay rate:       1.78e-06 rev/day^2
Epoch rev:           17454
Checksum:              335

Satellite: DO-64
Catalog number: 32789
Epoch time:      11202.18645350
Element set:      49
Inclination:      097.8555 deg
RA of node:       266.6735 deg
Eccentricity:    0.0016387
Arg of perigee:   065.7219 deg
Mean anomaly:     294.5702 deg
Mean motion:   14.83199998 rev/day
Decay rate:      1.089e-05 rev/day^2
Epoch rev:           17462
Checksum:              356

